Overview Statistics Trail Chart Weather Telemetry Raw packets
 

This is the latest recevied weather packets stored in our database for station/object OE6ATD-13. If no packets are shown the sender has not sent any weather packets the latest 10 day(s).

<< 50 51 52 53 54 55 56 >>
Time Temp. Humidity Pressure Rain* Wind** Luminosity Snow
1787928018 29.44° C 59% 1012.1 hPa 0 mm - 111 W/m² -
1787927429 29.44° C 58% 1012.4 hPa 0 mm - 112 W/m² -
1787926825 29.44° C 57% 1012.5 hPa 0 mm - 122 W/m² -
1787926220 30° C 56% 1012.6 hPa 0 mm - 137 W/m² -
1787925617 30° C 56% 1012.6 hPa 0 mm - 150 W/m² -
1787925027 30° C 56% 1012.7 hPa 0 mm - 172 W/m² -
1787924423 29.44° C 55% 1013.1 hPa 0 mm - 198 W/m² -
1787923819 30° C 54% 1013.2 hPa 0 mm - 194 W/m² -
1787923218 30° C 53% 1013.3 hPa 0 mm - 222 W/m² -
1787922629 30.56° C 51% 1013.3 hPa 0 mm - 422 W/m² -
1787922025 30° C 52% 1013.3 hPa 0 mm - 591 W/m² -
1787921420 31.11° C 50% 1013.6 hPa 0 mm - 534 W/m² -
1787920816 30.56° C 50% 1013.8 hPa 0 mm - 629 W/m² -
1787920228 30.56° C 50% 1013.7 hPa 0 mm - 564 W/m² -
1787919623 30.56° C 50% 1013.9 hPa 0 mm - 744 W/m² -
1787919018 30.56° C 50% 1014 hPa 0 mm - 836 W/m² -
1787918429 30.56° C 50% 1014.1 hPa 0 mm - 848 W/m² -
1787917824 30° C 50% 1014.3 hPa 0 mm - 789 W/m² -
1787917220 28.89° C 52% 1014.3 hPa 0 mm - 801 W/m² -
1787916616 27.78° C 53% 1014.3 hPa 0 mm - 334 W/m² -
1787916027 28.33° C 51% 1014.4 hPa 0 mm - 324 W/m² -
1787915422 28.33° C 51% 1014.5 hPa 0 mm - 556 W/m² -
1787914818 28.89° C 50% 1014.7 hPa 0 mm - 528 W/m² -
1787914229 28.33° C 51% 1014.8 hPa 0 mm - 777 W/m² -
1787913626 28.33° C 50% 1015.1 hPa 0 mm - 530 W/m² -

* Rain latest hour (hover to see other rain measurements)
** Current wind speed in m/s (hover to see current wind gust speed)